Location: ????????
(54.9045°N, 39.1041°E)
Time: 12:18:43
(UTC+00:00)

ALOS - Pass Details

Date: 14 April 2024
Orbit: 674 x 676 km, 98.0° (Epoch: 26 May)

Event Time Altitude Azimuth Distance (km) Brightness Sun altitude
Rises 01:42:01 0° 9° (N) 3,049 6.2 -6.2°
Reaches altitude 10° 01:44:31 10° 357° (N) 2,129 5.1 -5.9°
Maximum altitude 01:48:23 27° 301° (WNW) 1,313 3.5 -5.4°
Drops below altitude 10° 01:52:13 10° 245° (WSW) 2,116 4.1 -4.9°
Enters shadow 01:53:18 - 239° (WSW) 2,493 4.5 -4.7°
